Time,TemperatureF,DewpointF,PressureIn,WindDirection,WindDirectionDegrees,WindSpeedMPH,WindSpeedGustMPH,Humidity,HourlyPrecipIn,Conditions,Clouds,dailyrainin,SoftwareType,DateUTC
2013-06-11 00:00:00,88.3,29.2,29.67,SSW,205,0.0,0.0,12,0.00,,,0.00,Wunderground v.1.15,2013-06-11 06:00:00,
2013-06-11 00:10:00,87.6,26.6,29.69,South,179,1.0,14.0,11,0.00,,,0.00,Wunderground v.1.15,2013-06-11 06:10:00,
2013-06-11 00:15:00,88.1,27.0,29.69,South,181,4.0,14.0,11,0.00,,,0.00,Wunderground v.1.15,2013-06-11 06:15:00,
2013-06-11 00:25:00,87.7,26.7,29.70,South,172,6.0,7.0,11,0.00,,,0.00,Wunderground v.1.15,2013-06-11 06:25:00,
2013-06-11 00:35:00,87.1,26.2,29.70,SSE,159,3.0,4.0,11,0.00,,,0.00,Wunderground v.1.15,2013-06-11 06:35:00,
2013-06-11 00:40:00,86.7,25.9,29.70,SSW,201,3.0,3.0,11,0.00,,,0.00,Wunderground v.1.15,2013-06-11 06:40:00,
2013-06-11 00:50:00,86.3,25.6,29.70,WSW,244,2.0,2.0,11,0.00,,,0.00,Wunderground v.1.15,2013-06-11 06:50:00,
2013-06-11 01:00:00,85.1,22.4,29.70,West,264,1.0,1.0,10,0.00,,,0.00,Wunderground v.1.15,2013-06-11 07:00:00,
2013-06-11 01:10:00,85.4,20.1,29.71,West,260,3.0,3.0,9,0.00,,,0.00,Wunderground v.1.15,2013-06-11 07:10:00,
2013-06-11 01:20:00,85.1,22.4,29.71,NW,326,2.0,2.0,10,0.00,,,0.00,Wunderground v.1.15,2013-06-11 07:20:00,
2013-06-11 01:25:00,84.8,22.2,29.71,NW,317,2.0,2.0,10,0.00,,,0.00,Wunderground v.1.15,2013-06-11 07:25:00,
2013-06-11 01:30:00,84.3,21.8,29.72,SE,135,1.0,1.0,10,0.00,,,0.00,Wunderground v.1.15,2013-06-11 07:30:00,
2013-06-11 01:45:00,82.6,24.8,29.72,SSE,150,2.0,2.0,12,0.00,,,0.00,Wunderground v.1.15,2013-06-11 07:45:00,
2013-06-11 01:50:00,82.2,24.5,29.72,SSE,152,1.0,3.0,12,0.00,,,0.00,Wunderground v.1.15,2013-06-11 07:50:00,
2013-06-11 02:00:00,82.3,24.6,29.73,SE,128,1.0,2.0,12,0.00,,,0.00,Wunderground v.1.15,2013-06-11 08:00:00,
2013-06-11 02:10:00,81.9,26.2,29.73,SE,134,3.0,3.0,13,0.00,,,0.00,Wunderground v.1.15,2013-06-11 08:10:00,
2013-06-11 02:15:00,81.6,27.8,29.73,SSE,153,3.0,3.0,14,0.00,,,0.00,Wunderground v.1.15,2013-06-11 08:15:00,
2013-06-11 02:25:00,80.5,28.6,29.73,SSE,150,0.0,1.0,15,0.00,,,0.00,Wunderground v.1.15,2013-06-11 08:25:00,
2013-06-11 02:35:00,79.8,31.1,29.73,SSE,156,1.0,3.0,17,0.00,,,0.00,Wunderground v.1.15,2013-06-11 08:35:00,
2013-06-11 02:40:00,80.7,28.7,29.73,ESE,118,2.0,2.0,15,0.00,,,0.00,Wunderground v.1.15,2013-06-11 08:40:00,
2013-06-11 02:50:00,79.6,32.3,29.72,SE,139,0.0,0.0,18,0.00,,,0.00,Wunderground v.1.15,2013-06-11 08:50:00,
2013-06-11 03:00:00,79.2,34.6,29.72,ESE,114,1.0,1.0,20,0.00,,,0.00,Wunderground v.1.15,2013-06-11 09:00:00,
2013-06-11 03:10:00,78.2,36.2,29.72,ESE,112,0.0,0.0,22,0.00,,,0.00,Wunderground v.1.15,2013-06-11 09:10:00,
2013-06-11 03:20:00,77.9,36.0,29.72,SE,128,1.0,1.0,22,0.00,,,0.00,Wunderground v.1.15,2013-06-11 09:20:00,
2013-06-11 03:25:00,77.7,35.8,29.72,ESE,120,1.0,3.0,22,0.00,,,0.00,Wunderground v.1.15,2013-06-11 09:25:00,
2013-06-11 03:35:00,77.4,36.7,29.72,ESE,103,1.0,1.0,23,0.00,,,0.00,Wunderground v.1.15,2013-06-11 09:35:00,
2013-06-11 03:45:00,77.4,35.6,29.72,ESE,115,2.0,3.0,22,0.00,,,0.00,Wunderground v.1.15,2013-06-11 09:45:00,
2013-06-11 03:50:00,77.3,36.6,29.72,ESE,114,2.0,2.0,23,0.00,,,0.00,Wunderground v.1.15,2013-06-11 09:50:00,
2013-06-11 03:55:00,77.0,35.2,29.72,ESE,119,2.0,2.0,22,0.00,,,0.00,Wunderground v.1.15,2013-06-11 09:55:00,
2013-06-11 04:00:00,76.7,36.1,29.71,East,98,1.0,1.0,23,0.00,,,0.00,Wunderground v.1.15,2013-06-11 10:00:00,
2013-06-11 04:10:00,75.6,35.2,29.72,ESE,105,0.0,0.0,23,0.00,,,0.00,Wunderground v.1.15,2013-06-11 10:10:00,
2013-06-11 04:15:00,74.9,35.7,29.72,ESE,105,0.0,0.0,24,0.00,,,0.00,Wunderground v.1.15,2013-06-11 10:15:00,
2013-06-11 04:25:00,74.4,35.2,29.72,ESE,116,0.0,0.0,24,0.00,,,0.00,Wunderground v.1.15,2013-06-11 10:25:00,
2013-06-11 04:35:00,74.2,36.1,29.72,SSE,148,0.0,2.0,25,0.00,,,0.00,Wunderground v.1.15,2013-06-11 10:35:00,
2013-06-11 04:40:00,74.2,36.1,29.73,NE,34,1.0,1.0,25,0.00,,,0.00,Wunderground v.1.15,2013-06-11 10:40:00,
2013-06-11 04:50:00,74.8,35.6,29.73,NNE,26,1.0,3.0,24,0.00,,,0.00,Wunderground v.1.15,2013-06-11 10:50:00,
2013-06-11 05:00:00,75.6,35.2,29.73,East,98,1.0,1.0,23,0.00,,,0.00,Wunderground v.1.15,2013-06-11 11:00:00,
2013-06-11 05:10:00,74.9,34.6,29.74,ESE,107,0.0,0.0,23,0.00,,,0.00,Wunderground v.1.15,2013-06-11 11:10:00,
2013-06-11 05:15:00,74.1,36.0,29.74,NE,47,0.0,1.0,25,0.00,,,0.00,Wunderground v.1.15,2013-06-11 11:15:00,
2013-06-11 05:25:00,72.8,34.9,29.74,NE,47,0.0,0.0,25,0.00,,,0.00,Wunderground v.1.15,2013-06-11 11:25:00,
2013-06-11 05:30:00,72.2,34.4,29.74,SE,125,0.0,0.0,25,0.00,,,0.00,Wunderground v.1.15,2013-06-11 11:30:00,
2013-06-11 05:40:00,72.0,35.2,29.75,SE,125,0.0,0.0,26,0.00,,,0.00,Wunderground v.1.15,2013-06-11 11:40:00,
2013-06-11 05:50:00,71.2,35.5,29.75,ESE,123,0.0,2.0,27,0.00,,,0.00,Wunderground v.1.15,2013-06-11 11:50:00,
2013-06-11 05:55:00,70.9,36.1,29.75,SE,136,0.0,2.0,28,0.00,,,0.00,Wunderground v.1.15,2013-06-11 11:55:00,
2013-06-11 06:00:00,70.2,36.4,29.75,SE,135,0.0,0.0,29,0.00,,,0.00,Wunderground v.1.15,2013-06-11 12:00:00,
2013-06-11 06:10:00,69.2,36.4,29.75,SE,135,0.0,0.0,30,0.00,,,0.00,Wunderground v.1.15,2013-06-11 12:10:00,
2013-06-11 06:20:00,69.2,35.6,29.76,SSE,160,1.0,2.0,29,0.00,,,0.00,Wunderground v.1.15,2013-06-11 12:20:00,
2013-06-11 06:30:00,69.9,35.3,29.77,SE,132,2.0,2.0,28,0.00,,,0.00,Wunderground v.1.15,2013-06-11 12:30:00,
2013-06-11 06:35:00,70.5,33.0,29.78,SE,130,2.0,2.0,25,0.00,,,0.00,Wunderground v.1.15,2013-06-11 12:35:00,
2013-06-11 06:40:00,71.1,33.5,29.78,SE,143,2.0,3.0,25,0.00,,,0.00,Wunderground v.1.15,2013-06-11 12:40:00,
2013-06-11 06:50:00,71.6,30.7,29.79,SE,137,2.0,2.0,22,0.00,,,0.00,Wunderground v.1.15,2013-06-11 12:50:00,
2013-06-11 07:00:00,72.1,30.0,29.79,SE,138,1.0,2.0,21,0.00,,,0.00,Wunderground v.1.15,2013-06-11 13:00:00,
2013-06-11 07:10:00,72.2,31.2,29.79,SE,141,2.0,2.0,22,0.00,,,0.00,Wunderground v.1.15,2013-06-11 13:10:00,
2013-06-11 07:15:00,72.3,32.4,29.80,SE,141,1.0,2.0,23,0.00,,,0.00,Wunderground v.1.15,2013-06-11 13:15:00,
2013-06-11 07:20:00,72.4,31.4,29.80,SE,143,1.0,3.0,22,0.00,,,0.00,Wunderground v.1.15,2013-06-11 13:20:00,
2013-06-11 07:30:00,73.0,29.5,29.80,SE,125,2.0,2.0,20,0.00,,,0.00,Wunderground v.1.15,2013-06-11 13:30:00,
2013-06-11 07:40:00,73.7,28.8,29.80,SE,146,2.0,3.0,19,0.00,,,0.00,Wunderground v.1.15,2013-06-11 13:40:00,
2013-06-11 07:45:00,74.1,29.2,29.80,SE,132,3.0,3.0,19,0.00,,,0.00,Wunderground v.1.15,2013-06-11 13:45:00,
2013-06-11 07:55:00,74.9,29.8,29.81,ESE,113,2.0,4.0,19,0.00,,,0.00,Wunderground v.1.15,2013-06-11 13:55:00,
2013-06-11 08:00:00,75.4,27.5,29.81,East,96,2.0,2.0,17,0.00,,,0.00,Wunderground v.1.15,2013-06-11 14:00:00,
2013-06-11 08:10:00,76.1,28.1,29.81,ESE,118,2.0,2.0,17,0.00,,,0.00,Wunderground v.1.15,2013-06-11 14:10:00,
2013-06-11 08:20:00,76.8,28.7,29.81,SE,132,1.0,1.0,17,0.00,,,0.00,Wunderground v.1.15,2013-06-11 14:20:00,
2013-06-11 08:30:00,77.6,29.3,29.81,ESE,119,1.0,1.0,17,0.00,,,0.00,Wunderground v.1.15,2013-06-11 14:30:00,
2013-06-11 08:35:00,77.9,28.1,29.80,SSE,150,0.0,2.0,16,0.00,,,0.00,Wunderground v.1.15,2013-06-11 14:35:00,
2013-06-11 08:40:00,78.1,28.2,29.80,SE,132,1.0,1.0,16,0.00,,,0.00,Wunderground v.1.15,2013-06-11 14:40:00,
2013-06-11 08:50:00,78.7,28.7,29.81,South,172,0.0,0.0,16,0.00,,,0.00,Wunderground v.1.15,2013-06-11 14:50:00,
2013-06-11 09:00:00,79.6,27.9,29.80,SE,124,0.0,0.0,15,0.00,,,0.00,Wunderground v.1.15,2013-06-11 15:00:00,
2013-06-11 09:10:00,80.3,26.7,29.80,ENE,58,0.0,1.0,14,0.00,,,0.00,Wunderground v.1.15,2013-06-11 15:10:00,
2013-06-11 09:15:00,80.7,28.7,29.80,NNE,28,1.0,1.0,15,0.00,,,0.00,Wunderground v.1.15,2013-06-11 15:15:00,
2013-06-11 09:25:00,81.8,26.1,29.80,ENE,58,0.0,1.0,13,0.00,,,0.00,Wunderground v.1.15,2013-06-11 15:25:00,
2013-06-11 09:30:00,82.6,26.7,29.80,West,265,0.0,2.0,13,0.00,,,0.00,Wunderground v.1.15,2013-06-11 15:30:00,
2013-06-11 09:40:00,82.9,23.0,29.79,NNE,26,2.0,3.0,11,0.00,,,0.00,Wunderground v.1.15,2013-06-11 15:40:00,
2013-06-11 09:50:00,83.5,25.5,29.79,ESE,113,2.0,2.0,12,0.00,,,0.00,Wunderground v.1.15,2013-06-11 15:50:00,
2013-06-11 09:55:00,84.5,24.2,29.79,ENE,69,1.0,2.0,11,0.00,,,0.00,Wunderground v.1.15,2013-06-11 15:55:00,
2013-06-11 10:00:00,84.8,24.4,29.79,NW,319,1.0,1.0,11,0.00,,,0.00,Wunderground v.1.15,2013-06-11 16:00:00,
2013-06-11 10:10:00,84.9,22.2,29.78,NNE,32,1.0,3.0,10,0.00,,,0.00,Wunderground v.1.15,2013-06-11 16:10:00,
2013-06-11 10:15:00,85.1,24.7,29.78,North,353,1.0,3.0,11,0.00,,,0.00,Wunderground v.1.15,2013-06-11 16:15:00,
2013-06-11 10:20:00,85.7,25.1,29.78,West,264,1.0,2.0,11,0.00,,,0.00,Wunderground v.1.15,2013-06-11 16:20:00,
2013-06-11 10:25:00,86.3,23.3,29.78,SSE,159,1.0,4.0,10,0.00,,,0.00,Wunderground v.1.15,2013-06-11 16:25:00,
2013-06-11 10:30:00,86.5,27.8,29.78,SSW,212,2.0,2.0,12,0.00,,,0.00,Wunderground v.1.15,2013-06-11 16:30:00,
2013-06-11 10:40:00,87.0,26.1,29.78,SSW,198,2.0,4.0,11,0.00,,,0.00,Wunderground v.1.15,2013-06-11 16:40:00,
2013-06-11 10:50:00,87.7,24.4,29.78,SSE,153,2.0,3.0,10,0.00,,,0.00,Wunderground v.1.15,2013-06-11 16:50:00,
2013-06-11 10:55:00,87.8,24.4,29.78,SE,131,2.0,3.0,10,0.00,,,0.00,Wunderground v.1.15,2013-06-11 16:55:00,
2013-06-11 11:00:00,88.5,25.0,29.78,SSW,193,2.0,3.0,10,0.00,,,0.00,Wunderground v.1.15,2013-06-11 17:00:00,
2013-06-11 11:10:00,89.4,28.0,29.78,SSE,148,3.0,3.0,11,0.00,,,0.00,Wunderground v.1.15,2013-06-11 17:10:00,
2013-06-11 11:15:00,89.5,25.7,29.78,SW,221,3.0,5.0,10,0.00,,,0.00,Wunderground v.1.15,2013-06-11 17:15:00,
2013-06-11 11:25:00,89.7,23.3,29.77,WNW,298,3.0,3.0,9,0.00,,,0.00,Wunderground v.1.15,2013-06-11 17:25:00,
2013-06-11 11:30:00,90.1,26.2,29.77,SW,217,3.0,3.0,10,0.00,,,0.00,Wunderground v.1.15,2013-06-11 17:30:00,
2013-06-11 11:40:00,90.6,24.0,29.77,South,179,3.0,5.0,9,0.00,,,0.00,Wunderground v.1.15,2013-06-11 17:40:00,
2013-06-11 11:50:00,91.1,21.6,29.77,ESE,120,3.0,3.0,8,0.00,,,0.00,Wunderground v.1.15,2013-06-11 17:50:00,
2013-06-11 12:00:00,91.4,24.6,29.76,SW,215,3.0,3.0,9,0.00,,,0.00,Wunderground v.1.15,2013-06-11 18:00:00,
2013-06-11 12:10:00,91.8,22.1,29.76,SW,225,3.0,3.0,8,0.00,,,0.00,Wunderground v.1.15,2013-06-11 18:10:00,
2013-06-11 12:15:00,91.8,27.5,29.75,SSW,204,3.0,3.0,10,0.00,,,0.00,Wunderground v.1.15,2013-06-11 18:15:00,
2013-06-11 12:25:00,92.7,22.8,29.75,SSW,203,3.0,6.0,8,0.00,,,0.00,Wunderground v.1.15,2013-06-11 18:25:00,
2013-06-11 12:35:00,92.7,25.6,29.75,WSW,257,4.0,4.0,9,0.00,,,0.00,Wunderground v.1.15,2013-06-11 18:35:00,
2013-06-11 12:40:00,92.4,25.4,29.75,WNW,285,3.0,3.0,9,0.00,,,0.00,Wunderground v.1.15,2013-06-11 18:40:00,
2013-06-11 12:50:00,92.9,22.9,29.74,SE,145,3.0,3.0,8,0.00,,,0.00,Wunderground v.1.15,2013-06-11 18:50:00,
2013-06-11 13:00:00,93.7,23.5,29.74,SSE,157,4.0,4.0,8,0.00,,,0.00,Wunderground v.1.15,2013-06-11 19:00:00,
2013-06-11 13:10:00,94.3,20.8,29.73,SE,142,3.0,5.0,7,0.00,,,0.00,Wunderground v.1.15,2013-06-11 19:10:00,
2013-06-11 13:20:00,94.3,24.0,29.73,SSE,147,4.0,4.0,8,0.00,,,0.00,Wunderground v.1.15,2013-06-11 19:20:00,
2013-06-11 13:25:00,94.9,24.4,29.73,SSE,156,4.0,5.0,8,0.00,,,0.00,Wunderground v.1.15,2013-06-11 19:25:00,
2013-06-11 13:35:00,95.1,24.5,29.72,South,174,4.0,5.0,8,0.00,,,0.00,Wunderground v.1.15,2013-06-11 19:35:00,
2013-06-11 13:45:00,96.1,25.3,29.72,SW,215,4.0,9.0,8,0.00,,,0.00,Wunderground v.1.15,2013-06-11 19:45:00,
2013-06-11 13:55:00,95.9,25.1,29.71,NW,309,3.0,4.0,8,0.00,,,0.00,Wunderground v.1.15,2013-06-11 19:55:00,
2013-06-11 14:00:00,96.2,25.4,29.71,SSW,197,3.0,3.0,8,0.00,,,0.00,Wunderground v.1.15,2013-06-11 20:00:00,
2013-06-11 14:10:00,96.3,22.2,29.70,WNW,293,3.0,6.0,7,0.00,,,0.00,Wunderground v.1.15,2013-06-11 20:10:00,
2013-06-11 14:15:00,96.2,22.2,29.70,NW,316,3.0,6.0,7,0.00,,,0.00,Wunderground v.1.15,2013-06-11 20:15:00,
2013-06-11 14:20:00,96.5,25.6,29.70,South,184,3.0,6.0,8,0.00,,,0.00,Wunderground v.1.15,2013-06-11 20:20:00,
2013-06-11 14:30:00,96.9,22.7,29.69,SW,217,3.0,3.0,7,0.00,,,0.00,Wunderground v.1.15,2013-06-11 20:30:00,
2013-06-11 14:40:00,97.1,26.0,29.68,SSE,168,2.0,2.0,8,0.00,,,0.00,Wunderground v.1.15,2013-06-11 20:40:00,
2013-06-11 14:50:00,97.8,23.3,29.68,SSE,150,4.0,4.0,7,0.00,,,0.00,Wunderground v.1.15,2013-06-11 20:50:00,
2013-06-11 15:00:00,98.0,23.5,29.67,ESE,111,4.0,8.0,7,0.00,,,0.00,Wunderground v.1.15,2013-06-11 21:00:00,
2013-06-11 15:10:00,97.4,23.0,29.67,SW,217,4.0,4.0,7,0.00,,,0.00,Wunderground v.1.15,2013-06-11 21:10:00,
2013-06-11 15:15:00,97.3,23.0,29.67,SSE,155,4.0,6.0,7,0.00,,,0.00,Wunderground v.1.15,2013-06-11 21:15:00,
2013-06-11 15:25:00,97.7,19.6,29.66,NNE,12,2.0,4.0,6,0.00,,,0.00,Wunderground v.1.15,2013-06-11 21:25:00,
2013-06-11 15:35:00,98.6,23.9,29.66,SE,141,4.0,5.0,7,0.00,,,0.00,Wunderground v.1.15,2013-06-11 21:35:00,
2013-06-11 15:40:00,98.0,19.8,29.66,WSW,255,6.0,6.0,6,0.00,,,0.00,Wunderground v.1.15,2013-06-11 21:40:00,
2013-06-11 15:45:00,98.1,19.9,29.65,SSE,165,4.0,6.0,6,0.00,,,0.00,Wunderground v.1.15,2013-06-11 21:45:00,
2013-06-11 15:55:00,98.8,24.1,29.65,South,188,5.0,6.0,7,0.00,,,0.00,Wunderground v.1.15,2013-06-11 21:55:00,
2013-06-11 16:00:00,98.6,20.3,29.65,SW,222,5.0,5.0,6,0.00,,,0.00,Wunderground v.1.15,2013-06-11 22:00:00,
2013-06-11 16:10:00,98.9,20.5,29.65,North,1,4.0,4.0,6,0.00,,,0.00,Wunderground v.1.15,2013-06-11 22:10:00,
2013-06-11 16:15:00,99.3,20.8,29.64,SSE,166,2.0,4.0,6,0.00,,,0.00,Wunderground v.1.15,2013-06-11 22:15:00,
2013-06-11 16:20:00,99.4,16.6,29.64,SE,145,2.0,5.0,5,0.00,,,0.00,Wunderground v.1.15,2013-06-11 22:20:00,
2013-06-11 16:30:00,99.9,21.2,29.64,NW,314,4.0,4.0,6,0.00,,,0.00,Wunderground v.1.15,2013-06-11 22:30:00,
2013-06-11 16:35:00,99.6,16.7,29.63,South,177,3.0,4.0,5,0.00,,,0.00,Wunderground v.1.15,2013-06-11 22:35:00,
2013-06-11 16:45:00,99.7,11.7,29.63,NW,309,3.0,10.0,4,0.00,,,0.00,Wunderground v.1.15,2013-06-11 22:45:00,
2013-06-11 16:50:00,99.3,11.4,29.63,WSW,252,5.0,7.0,4,0.00,,,0.00,Wunderground v.1.15,2013-06-11 22:50:00,
2013-06-11 17:00:00,99.7,11.7,29.63,WSW,257,4.0,4.0,4,0.00,,,0.00,Wunderground v.1.15,2013-06-11 23:00:00,
2013-06-11 17:10:00,99.4,11.5,29.63,WNW,285,3.0,6.0,4,0.00,,,0.00,Wunderground v.1.15,2013-06-11 23:10:00,
2013-06-11 17:15:00,99.4,16.6,29.62,NNW,328,3.0,8.0,5,0.00,,,0.00,Wunderground v.1.15,2013-06-11 23:15:00,
2013-06-11 17:25:00,98.8,11.1,29.62,West,278,5.0,8.0,4,0.00,,,0.00,Wunderground v.1.15,2013-06-11 23:25:00,
2013-06-11 17:30:00,98.4,10.8,29.62,SW,231,6.0,6.0,4,0.00,,,0.00,Wunderground v.1.15,2013-06-11 23:30:00,
2013-06-11 17:40:00,98.6,16.0,29.61,NW,307,5.0,10.0,5,0.00,,,0.00,Wunderground v.1.15,2013-06-11 23:40:00,
2013-06-11 17:50:00,98.7,11.0,29.61,SW,234,5.0,5.0,4,0.00,,,0.00,Wunderground v.1.15,2013-06-11 23:50:00,
2013-06-11 18:00:00,98.8,11.1,29.61,West,276,4.0,5.0,4,0.00,,,0.00,Wunderground v.1.15,2013-06-12 00:00:00,
2013-06-11 18:10:00,98.6,4.6,29.61,West,262,5.0,7.0,3,0.00,,,0.00,Wunderground v.1.15,2013-06-12 00:10:00,
2013-06-11 18:15:00,98.3,10.7,29.61,West,261,6.0,7.0,4,0.00,,,0.00,Wunderground v.1.15,2013-06-12 00:15:00,
2013-06-11 18:25:00,98.2,10.7,29.61,WSW,252,4.0,5.0,4,0.00,,,0.00,Wunderground v.1.15,2013-06-12 00:25:00,
2013-06-11 18:35:00,98.2,10.7,29.61,NW,318,4.0,4.0,4,0.00,,,0.00,Wunderground v.1.15,2013-06-12 00:35:00,
2013-06-11 18:40:00,97.8,10.4,29.61,WNW,283,4.0,5.0,4,0.00,,,0.00,Wunderground v.1.15,2013-06-12 00:40:00,
2013-06-11 18:50:00,97.6,10.2,29.61,NW,311,5.0,5.0,4,0.00,,,0.00,Wunderground v.1.15,2013-06-12 00:50:00,
2013-06-11 19:00:00,97.5,10.2,29.61,NNW,330,4.0,4.0,4,0.00,,,0.00,Wunderground v.1.15,2013-06-12 01:00:00,
2013-06-11 19:10:00,97.3,10.0,29.62,WNW,289,4.0,4.0,4,0.00,,,0.00,Wunderground v.1.15,2013-06-12 01:10:00,
2013-06-11 19:20:00,97.1,3.6,29.62,NNW,335,3.0,4.0,3,0.00,,,0.00,Wunderground v.1.15,2013-06-12 01:20:00,
2013-06-11 19:25:00,96.8,9.7,29.62,WSW,245,4.0,4.0,4,0.00,,,0.00,Wunderground v.1.15,2013-06-12 01:25:00,
2013-06-11 19:30:00,96.4,9.4,29.62,West,260,4.0,7.0,4,0.00,,,0.00,Wunderground v.1.15,2013-06-12 01:30:00,
2013-06-11 19:40:00,95.8,9.0,29.62,SW,224,4.0,6.0,4,0.00,,,0.00,Wunderground v.1.15,2013-06-12 01:40:00,
2013-06-11 19:45:00,95.4,8.7,29.62,WSW,253,4.0,6.0,4,0.00,,,0.00,Wunderground v.1.15,2013-06-12 01:45:00,
2013-06-11 19:55:00,94.2,12.9,29.63,NW,314,4.0,5.0,5,0.00,,,0.00,Wunderground v.1.15,2013-06-12 01:55:00,
2013-06-11 20:00:00,93.8,12.6,29.63,NW,317,4.0,5.0,5,0.00,,,0.00,Wunderground v.1.15,2013-06-12 02:00:00,
2013-06-11 20:10:00,93.1,12.2,29.63,NW,316,4.0,4.0,5,0.00,,,0.00,Wunderground v.1.15,2013-06-12 02:10:00,
2013-06-11 20:20:00,91.8,22.1,29.63,NNW,348,1.0,1.0,8,0.00,,,0.00,Wunderground v.1.15,2013-06-12 02:20:00,
2013-06-11 20:25:00,91.1,18.5,29.64,North,6,1.0,1.0,7,0.00,,,0.00,Wunderground v.1.15,2013-06-12 02:25:00,
2013-06-11 20:30:00,90.6,18.1,29.64,NNW,328,1.0,1.0,7,0.00,,,0.00,Wunderground v.1.15,2013-06-12 02:30:00,
2013-06-11 20:40:00,89.6,20.5,29.64,North,349,2.0,2.0,8,0.00,,,0.00,Wunderground v.1.15,2013-06-12 02:40:00,
2013-06-11 20:50:00,88.6,16.6,29.64,NNE,23,1.0,2.0,7,0.00,,,0.00,Wunderground v.1.15,2013-06-12 02:50:00,
2013-06-11 20:55:00,88.1,16.3,29.64,NE,34,2.0,2.0,7,0.00,,,0.00,Wunderground v.1.15,2013-06-12 02:55:00,
2013-06-11 21:00:00,87.4,15.8,29.65,NE,40,1.0,1.0,7,0.00,,,0.00,Wunderground v.1.15,2013-06-12 03:00:00,
2013-06-11 21:10:00,86.0,17.8,29.65,NE,55,0.0,2.0,8,0.00,,,0.00,Wunderground v.1.15,2013-06-12 03:10:00,
2013-06-11 21:20:00,85.6,14.4,29.66,NNE,29,1.0,1.0,7,0.00,,,0.00,Wunderground v.1.15,2013-06-12 03:20:00,
2013-06-11 21:30:00,85.4,14.3,29.67,NNE,15,1.0,2.0,7,0.00,,,0.00,Wunderground v.1.15,2013-06-12 03:30:00,
2013-06-11 21:40:00,85.6,14.4,29.67,NNE,15,1.0,1.0,7,0.00,,,0.00,Wunderground v.1.15,2013-06-12 03:40:00,
2013-06-11 21:45:00,84.9,17.0,29.67,NNE,19,0.0,1.0,8,0.00,,,0.00,Wunderground v.1.15,2013-06-12 03:45:00,
2013-06-11 21:55:00,84.8,13.9,29.68,North,354,1.0,1.0,7,0.00,,,0.00,Wunderground v.1.15,2013-06-12 03:55:00,
2013-06-11 22:00:00,84.2,16.5,29.68,North,354,0.0,0.0,8,0.00,,,0.00,Wunderground v.1.15,2013-06-12 04:00:00,
2013-06-11 22:05:00,83.4,18.6,29.69,North,354,0.0,0.0,9,0.00,,,0.00,Wunderground v.1.15,2013-06-12 04:05:00,
2013-06-11 22:10:00,82.5,17.9,29.69,NW,326,0.0,0.0,9,0.00,,,0.00,Wunderground v.1.15,2013-06-12 04:10:00,
2013-06-11 22:15:00,82.0,14.8,29.69,NNW,328,0.0,0.0,8,0.00,,,0.00,Wunderground v.1.15,2013-06-12 04:15:00,
2013-06-11 22:20:00,81.4,19.6,29.70,NNW,328,0.0,0.0,10,0.00,,,0.00,Wunderground v.1.15,2013-06-12 04:20:00,
2013-06-11 22:25:00,80.5,18.9,29.70,NNW,332,0.0,0.0,10,0.00,,,0.00,Wunderground v.1.15,2013-06-12 04:25:00,
2013-06-11 22:30:00,80.1,18.6,29.70,NNW,333,0.0,0.0,10,0.00,,,0.00,Wunderground v.1.15,2013-06-12 04:30:00,
2013-06-11 22:40:00,81.0,16.8,29.71,NE,41,0.0,0.0,9,0.00,,,0.00,Wunderground v.1.15,2013-06-12 04:40:00,
2013-06-11 22:45:00,81.0,16.8,29.70,NE,42,0.0,0.0,9,0.00,,,0.00,Wunderground v.1.15,2013-06-12 04:45:00,
2013-06-11 22:55:00,81.1,16.9,29.71,NNE,19,0.0,1.0,9,0.00,,,0.00,Wunderground v.1.15,2013-06-12 04:55:00,
2013-06-11 23:00:00,81.6,14.5,29.71,North,6,1.0,1.0,8,0.00,,,0.00,Wunderground v.1.15,2013-06-12 05:00:00,
2013-06-11 23:10:00,81.0,16.8,29.71,North,8,0.0,0.0,9,0.00,,,0.00,Wunderground v.1.15,2013-06-12 05:10:00,
2013-06-11 23:15:00,80.1,18.6,29.71,North,8,0.0,0.0,10,0.00,,,0.00,Wunderground v.1.15,2013-06-12 05:15:00,
2013-06-11 23:20:00,79.0,17.7,29.71,North,8,0.0,0.0,10,0.00,,,0.00,Wunderground v.1.15,2013-06-12 05:20:00,
2013-06-11 23:25:00,78.0,17.0,29.71,North,8,0.0,0.0,10,0.00,,,0.00,Wunderground v.1.15,2013-06-12 05:25:00,
2013-06-11 23:35:00,76.7,18.2,29.71,North,8,0.0,0.0,11,0.00,,,0.00,Wunderground v.1.15,2013-06-12 05:35:00,
2013-06-11 23:45:00,76.0,21.6,29.71,ESE,109,0.0,0.0,13,0.00,,,0.00,Wunderground v.1.15,2013-06-12 05:45:00,
2013-06-11 23:50:00,75.6,23.0,29.71,ESE,109,0.0,0.0,14,0.00,,,0.00,Wunderground v.1.15,2013-06-12 05:50:00,